| time (UTC) | temp C | wind direction | speed KPH | gust KPH | rain 1hr cm | rain 24hr cm | rain mn cm | humidity % | barometer mb |
| 20260906040131 | 24 | 344 | 0.0 | 0.0 | 0.00 | 0.00 | 0.00 | 96 | 1011.2 |
| 20260906040111 | 24 | 344 | 0.0 | 0.0 | 0.00 | 0.00 | 0.00 | 96 | 1011.0 |
| 20260906035541 | 24 | 344 | 0.0 | 0.0 | 0.00 | 0.00 | 0.00 | 96 | 1011.0 |
| 20260906034509 | 25 | 344 | 0.0 | 0.0 | 0.00 | 0.00 | 0.00 | 96 | 1011.1 |
| 20260906034008 | 25 | 344 | 0.0 | 0.0 | 0.00 | 0.00 | 0.00 | 96 | 1011.2 |
| 20260906033757 | 25 | 344 | 0.0 | 0.0 | 0.00 | 0.00 | 0.00 | 96 | 1011.2 |
| 20260906033010 | 25 | 344 | 0.0 | 0.0 | 0.00 | 0.00 | 0.00 | 96 | 1011.2 |
| 20260906032510 | 25 | 344 | 0.0 | 0.0 | 0.00 | 0.00 | 0.00 | 96 | 1011.1 |
| 20260906032009 | 25 | 344 | 0.0 | 0.0 | 0.00 | 0.00 | 0.00 | 96 | 1011.1 |
| 20260906031508 | 25 | 344 | 0.0 | 0.0 | 0.00 | 0.00 | 0.00 | 96 | 1011.0 |
| 20260906031009 | 25 | 344 | 0.0 | 0.0 | 0.00 | 0.00 | 0.00 | 96 | 1011.1 |
| 20260906030507 | 25 | 344 | 0.0 | 0.0 | 0.00 | 0.00 | 0.00 | 96 | 1011.1 |
| 20260906030010 | 25 | 344 | 0.0 | 0.0 | 0.00 | 0.00 | 0.00 | 96 | 1011.2 |
| 20260906025758 | 25 | 344 | 0.0 | 0.0 | 0.00 | 0.00 | 0.00 | 96 | 1011.2 |
| 20260906025007 | 25 | 344 | 0.0 | 0.0 | 0.00 | 0.00 | 0.00 | 96 | 1011.1 |
| 20260906024507 | 25 | 344 | 0.0 | 0.0 | 0.00 | 0.00 | 0.00 | 96 | 1011.0 |
| 20260906024008 | 25 | 344 | 0.0 | 0.0 | 0.00 | 0.00 | 0.00 | 96 | 1010.9 |
| 20260906023508 | 25 | 344 | 0.0 | 0.0 | 0.00 | 0.00 | 0.00 | 96 | 1010.9 |
| 20260906023008 | 25 | 344 | 0.0 | 0.0 | 0.00 | 0.00 | 0.00 | 96 | 1010.8 |
| 20260906022507 | 25 | 344 | 0.0 | 0.0 | 0.00 | 0.00 | 0.00 | 96 | 1010.7 |
| 20260906022008 | 25 | 344 | 0.0 | 0.0 | 0.00 | 0.00 | 0.00 | 95 | 1010.7 |
| 20260906021507 | 25 | 344 | 0.0 | 0.0 | 0.00 | 0.00 | 0.00 | 95 | 1010.5 |
| 20260906021003 | 25 | 344 | 0.0 | 0.0 | 0.00 | 0.00 | 0.00 | 95 | 1010.4 |
| 20260906020504 | 25 | 344 | 0.0 | 0.0 | 0.00 | 0.00 | 0.00 | 95 | 1010.3 |
| 20260906020004 | 25 | 344 | 0.0 | 0.0 | 0.00 | 0.00 | 0.00 | 95 | 1010.4 |
| 20260906015748 | 25 | 344 | 0.0 | 0.0 | 0.00 | 0.00 | 0.00 | 95 | 1010.2 |
| 20260906015004 | 25 | 344 | 0.0 | 0.0 | 0.00 | 0.00 | 0.00 | 95 | 1010.2 |
| 20260906014504 | 25 | 344 | 0.0 | 0.0 | 0.00 | 0.00 | 0.00 | 95 | 1010.3 |
| 20260906014002 | 25 | 344 | 0.0 | 0.0 | 0.00 | 0.00 | 0.00 | 94 | 1010.3 |
| 20260906013502 | 25 | 344 | 0.0 | 0.0 | 0.00 | 0.00 | 0.00 | 94 | 1010.2 |
| 20260906013248 | 25 | 344 | 0.0 | 0.0 | 0.00 | 0.00 | 0.00 | 94 | 1010.2 |
| 20260906012502 | 26 | 344 | 0.0 | 0.0 | 0.00 | 0.00 | 0.00 | 94 | 1010.1 |
| 20260906012002 | 26 | 344 | 0.0 | 0.0 | 0.00 | 0.00 | 0.00 | 94 | 1010.1 |
| 20260906011504 | 26 | 344 | 0.0 | 0.0 | 0.00 | 0.00 | 0.00 | 94 | 1010.2 |
| 20260906011004 | 26 | 344 | 0.0 | 0.0 | 0.00 | 0.00 | 0.00 | 93 | 1010.3 |
| 20260906010504 | 26 | 344 | 0.0 | 0.0 | 0.00 | 0.00 | 0.00 | 93 | 1010.2 |
| 20260906010003 | 26 | 344 | 0.0 | 0.0 | 0.00 | 0.00 | 0.00 | 93 | 1010.2 |
| 20260906005753 | 26 | 344 | 0.0 | 0.0 | 0.00 | 0.00 | 0.00 | 93 | 1010.3 |
| 20260906005004 | 26 | 344 | 0.0 | 0.0 | 0.00 | 0.00 | 0.00 | 92 | 1010.3 |
| 20260906004503 | 26 | 344 | 0.0 | 0.0 | 0.00 | 0.00 | 0.00 | 92 | 1010.3 |
| 20260906004254 | 26 | 344 | 0.0 | 0.0 | 0.00 | 0.00 | 0.00 | 92 | 1010.2 |
| 20260906003741 | 26 | 344 | 0.0 | 0.0 | 0.00 | 0.00 | 0.00 | 91 | 1010.1 |
| 20260906003003 | 27 | 344 | 0.0 | 0.0 | 0.00 | 0.00 | 0.00 | 91 | 1010.2 |
| 20260906002503 | 27 | 344 | 0.0 | 0.0 | 0.00 | 0.00 | 0.00 | 90 | 1010.0 |
| 20260906002003 | 27 | 344 | 0.0 | 0.0 | 0.00 | 0.00 | 0.00 | 90 | 1010.1 |
| 20260906001503 | 27 | 344 | 0.0 | 0.0 | 0.00 | 0.00 | 0.00 | 90 | 1010.2 |
| 20260906001003 | 27 | 344 | 0.0 | 0.0 | 0.00 | 0.00 | 0.00 | 89 | 1010.2 |
| 20260906000503 | 27 | 344 | 0.0 | 0.0 | 0.00 | 0.00 | 0.00 | 89 | 1010.3 |
| 20260906000004 | 27 | 344 | 0.0 | 0.0 | 0.00 | 0.00 | 0.00 | 89 | 1010.4 |
| 20260905235504 | 27 | 344 | 0.0 | 0.0 | 0.00 | 0.00 | 0.00 | 89 | 1010.4 |
| 20260905235247 | 28 | 345 | 0.0 | 0.0 | 0.00 | 0.00 | 0.00 | 88 | 1010.3 |
| 20260905234506 | 28 | 345 | 0.0 | 1.6 | 0.00 | 0.00 | 0.00 | 88 | 1010.4 |
| 20260905234253 | 28 | 345 | 0.0 | 1.6 | 0.00 | 0.00 | 0.00 | 88 | 1010.4 |
| 20260905233504 | 28 | 220 | 0.0 | 1.6 | 0.00 | 0.00 | 0.00 | 89 | 1010.4 |
| 20260905233002 | 28 | 220 | 0.0 | 0.0 | 0.00 | 0.00 | 0.00 | 88 | 1010.3 |
| 20260905232849 | 28 | 220 | 0.0 | 0.0 | 0.00 | 0.00 | 0.00 | 87 | 1010.2 |
| 20260905232844 | 28 | 220 | 0.0 | 0.0 | 0.00 | 0.00 | 0.00 | 88 | 1010.1 |
| 20260905231504 | 28 | 220 | 0.0 | 0.0 | 0.00 | 0.00 | 0.00 | 88 | 1010.3 |
| 20260905231003 | 28 | 220 | 0.0 | 0.0 | 0.00 | 0.00 | 0.00 | 87 | 1010.2 |
| 20260905230502 | 28 | 220 | 0.0 | 0.0 | 0.00 | 0.00 | 0.00 | 87 | 1010.2 |
| 20260905230003 | 28 | 220 | 0.0 | 0.0 | 0.00 | 0.00 | 0.00 | 86 | 1010.2 |
| 20260905225503 | 28 | 220 | 0.0 | 0.0 | 0.00 | 0.00 | 0.00 | 87 | 1010.2 |
| 20260905225251 | 28 | 220 | 0.0 | 0.0 | 0.00 | 0.00 | 0.00 | 85 | 1010.2 |
| 20260905224501 | 28 | 220 | 0.0 | 0.0 | 0.00 | 0.00 | 0.00 | 85 | 1010.1 |
| 20260905224003 | 28 | 220 | 0.0 | 1.6 | 0.00 | 0.00 | 0.00 | 85 | 1010.0 |
| 20260905223502 | 28 | 220 | 0.0 | 1.6 | 0.00 | 0.00 | 0.00 | 86 | 1010.0 |
| 20260905223256 | 28 | 99 | 0.0 | 1.6 | 0.00 | 0.00 | 0.00 | 86 | 1010.1 |
| 20260905222751 | 28 | 99 | 0.0 | 1.6 | 0.00 | 0.00 | 0.00 | 85 | 1010.2 |
| 20260905222255 | 28 | 99 | 0.0 | 0.0 | 0.00 | 0.00 | 0.00 | 85 | 1010.3 |
| 20260905221502 | 28 | 99 | 0.0 | 1.6 | 0.00 | 0.00 | 0.00 | 84 | 1010.5 |
| 20260905221002 | 29 | 99 | 0.0 | 1.6 | 0.00 | 0.00 | 0.00 | 84 | 1010.6 |
| 20260905220502 | 29 | 99 | 0.0 | 1.6 | 0.00 | 0.00 | 0.00 | 82 | 1010.7 |
| 20260905220000 | 30 | 99 | 0.0 | 0.0 | 0.00 | 0.00 | 0.00 | 81 | 1010.4 |
| 20260905215502 | 30 | 103 | 0.0 | 3.2 | 0.00 | 0.00 | 0.00 | 80 | 1010.4 |
| 20260905215001 | 30 | 83 | 0.0 | 3.2 | 0.00 | 0.00 | 0.00 | 81 | 1010.6 |
| 20260905214501 | 30 | 141 | 0.0 | 0.0 | 0.00 | 0.00 | 0.00 | 80 | 1010.4 |
| 20260905214000 | 30 | 75 | 0.0 | 0.0 | 0.00 | 0.00 | 0.00 | 79 | 1010.4 |
| 20260905213459 | 31 | 330 | 0.0 | 0.0 | 0.00 | 0.00 | 0.00 | 79 | 1010.5 |
| 20260905213056 | 31 | 72 | 0.0 | 0.0 | 0.00 | 0.00 | 0.00 | 77 | 1010.5 |
| 20260905213034 | 31 | 158 | 0.0 | 0.0 | 0.00 | 0.00 | 0.00 | 78 | 1010.6 |
| 20260905212001 | 31 | 49 | 0.0 | 3.2 | 0.00 | 0.00 | 0.00 | 76 | 1010.5 |
| 20260905211459 | 31 | 310 | 0.0 | 3.2 | 0.00 | 0.00 | 0.00 | 77 | 1010.7 |
| 20260905211256 | 32 | 200 | 0.0 | 1.6 | 0.00 | 0.00 | 0.00 | 78 | 1010.7 |
| 20260905210500 | 31 | 197 | 0.0 | 1.6 | 0.00 | 0.00 | 0.00 | 77 | 1010.6 |
| 20260905210001 | 31 | 233 | 0.0 | 0.0 | 0.00 | 0.00 | 0.00 | 78 | 1010.6 |
| 20260905205459 | 31 | 228 | 0.0 | 0.0 | 0.00 | 0.00 | 0.00 | 76 | 1010.5 |
| 20260905205001 | 31 | 202 | 0.0 | 0.0 | 0.00 | 0.00 | 0.00 | 75 | 1010.4 |
| 20260905204459 | 31 | 133 | 0.0 | 0.0 | 0.00 | 0.00 | 0.00 | 75 | 1010.5 |
| 20260905203958 | 31 | 245 | 0.0 | 0.0 | 0.00 | 0.00 | 0.00 | 77 | 1010.5 |
| 20260905203500 | 31 | 245 | 0.0 | 1.6 | 0.00 | 0.00 | 0.00 | 76 | 1010.6 |
| 20260905202959 | 31 | 7 | 0.0 | 1.6 | 0.00 | 0.00 | 0.00 | 76 | 1010.5 |
| 20260905202459 | 31 | 223 | 0.0 | 0.0 | 0.00 | 0.00 | 0.00 | 77 | 1010.6 |
| 20260905201959 | 31 | 199 | 0.0 | 0.0 | 0.00 | 0.00 | 0.00 | 78 | 1010.5 |
| 20260905201501 | 30 | 202 | 0.0 | 0.0 | 0.00 | 0.00 | 0.00 | 79 | 1010.6 |
| 20260905200957 | 30 | 200 | 0.0 | 0.0 | 0.00 | 0.00 | 0.00 | 78 | 1010.8 |
| 20260905200458 | 31 | 268 | 0.0 | 0.0 | 0.00 | 0.00 | 0.00 | 80 | 1010.7 |
| 20260905195959 | 31 | 268 | 0.0 | 0.0 | 0.00 | 0.00 | 0.00 | 78 | 1010.7 |
| 20260905195546 | 31 | 268 | 0.0 | 0.0 | 0.00 | 0.00 | 0.00 | 77 | 1010.8 |
| 20260905195528 | 31 | 268 | 0.0 | 0.0 | 0.00 | 0.00 | 0.00 | 78 | 1010.8 |
| 20260905194457 | 31 | 268 | 0.0 | 1.6 | 0.00 | 0.00 | 0.00 | 79 | 1011.0 |
| 20260905193959 | 31 | 274 | 0.0 | 1.6 | 0.00 | 0.00 | 0.00 | 76 | 1011.0 |
| 20260905193458 | 31 | 278 | 0.0 | 1.6 | 0.00 | 0.00 | 0.00 | 74 | 1011.0 |
| 20260905192957 | 32 | 241 | 0.0 | 3.2 | 0.00 | 0.00 | 0.00 | 74 | 1011.2 |
| 20260905192457 | 32 | 235 | 0.0 | 3.2 | 0.00 | 0.00 | 0.00 | 73 | 1011.2 |
| 20260905191956 | 33 | 199 | 1.6 | 3.2 | 0.00 | 0.00 | 0.00 | 72 | 1011.3 |
| 20260905191457 | 32 | 123 | 1.6 | 3.2 | 0.00 | 0.00 | 0.00 | 71 | 1011.3 |
| 20260905190958 | 32 | 130 | 0.0 | 3.2 | 0.00 | 0.03 | 0.00 | 72 | 1011.4 |
| 20260905190457 | 32 | 240 | 0.0 | 3.2 | 0.00 | 0.03 | 0.00 | 74 | 1011.5 |
| 20260905185956 | 31 | 241 | 0.0 | 3.2 | 0.00 | 0.03 | 0.00 | 75 | 1011.5 |
| 20260905185456 | 31 | 159 | 0.0 | 1.6 | 0.00 | 0.05 | 0.00 | 75 | 1011.6 |
| 20260905184956 | 31 | 73 | 0.0 | 1.6 | 0.00 | 0.05 | 0.00 | 74 | 1011.7 |
| 20260905184456 | 31 | 144 | 0.0 | 6.4 | 0.00 | 0.05 | 0.00 | 74 | 1011.7 |
| 20260905183957 | 32 | 124 | 0.0 | 6.4 | 0.00 | 0.08 | 0.00 | 71 | 1011.7 |
| 20260905183748 | 32 | 264 | 1.6 | 4.8 | 0.00 | 0.10 | 0.00 | 74 | 1011.9 |
| 20260905182958 | 31 | 75 | 0.0 | 1.6 | 0.00 | 0.13 | 0.00 | 76 | 1011.9 |
| 20260905182455 | 31 | 111 | 0.0 | 4.8 | 0.00 | 0.13 | 0.00 | 74 | 1012.0 |
| 20260905181955 | 32 | 83 | 1.6 | 4.8 | 0.00 | 0.13 | 0.00 | 72 | 1012.1 |
| 20260905181455 | 31 | 244 | 0.0 | 3.2 | 0.00 | 0.13 | 0.00 | 73 | 1012.0 |
| 20260905180956 | 31 | 355 | 0.0 | 3.2 | 0.00 | 0.15 | 0.00 | 74 | 1012.2 |
| 20260905180455 | 31 | 223 | 0.0 | 4.8 | 0.00 | 0.15 | 0.00 | 76 | 1012.3 |
| 20260905175956 | 31 | 3 | 0.0 | 4.8 | 0.00 | 0.15 | 0.00 | 76 | 1012.4 |
| 20260905175456 | 30 | 285 | 1.6 | 3.2 | 0.00 | 0.15 | 0.00 | 75 | 1012.4 |
| 20260905174955 | 30 | 240 | 0.0 | 1.6 | 0.00 | 0.15 | 0.00 | 79 | 1012.5 |
| 20260905174456 | 30 | 320 | 0.0 | 0.0 | 0.00 | 0.15 | 0.00 | 80 | 1012.7 |
| 20260905173955 | 30 | 320 | 0.0 | 0.0 | 0.00 | 0.15 | 0.00 | 80 | 1012.7 |
| 20260905173454 | 30 | 320 | 0.0 | 1.6 | 0.00 | 0.15 | 0.00 | 81 | 1012.7 |
| 20260905172954 | 30 | 347 | 0.0 | 1.6 | 0.00 | 0.15 | 0.00 | 79 | 1012.8 |
| 20260905172747 | 30 | 271 | 0.0 | 1.6 | 0.00 | 0.15 | 0.00 | 83 | 1012.8 |
| 20260905171955 | 30 | 274 | 0.0 | 1.6 | 0.00 | 0.15 | 0.00 | 81 | 1012.7 |
| 20260905171543 | 30 | 243 | 0.0 | 1.6 | 0.00 | 0.15 | 0.00 | 80 | 1012.8 |
| 20260905171526 | 30 | 245 | 0.0 | 1.6 | 0.00 | 0.15 | 0.00 | 81 | 1012.8 |
| 20260905170746 | 30 | 189 | 0.0 | 0.0 | 0.00 | 0.15 | 0.00 | 84 | 1012.8 |
| 20260905165954 | 28 | 298 | 0.0 | 0.0 | 0.00 | 0.15 | 0.00 | 85 | 1012.9 |
| 20260905165448 | 28 | 298 | 0.0 | 6.4 | 0.00 | 0.15 | 0.00 | 85 | 1012.9 |
| 20260905165237 | 28 | 303 | 1.6 | 6.4 | 0.00 | 0.15 | 0.00 | 85 | 1013.0 |
| 20260905164448 | 28 | 309 | 0.0 | 4.8 | 0.00 | 0.15 | 0.00 | 84 | 1013.0 |
| 20260905163948 | 29 | 271 | 0.0 | 4.8 | 0.00 | 0.15 | 0.00 | 82 | 1013.1 |
| 20260905163446 | 29 | 272 | 0.0 | 3.2 | 0.00 | 0.15 | 0.00 | 82 | 1013.1 |
| 20260905162947 | 30 | 272 | 0.0 | 3.2 | 0.00 | 0.15 | 0.00 | 80 | 1013.1 |
| 20260905162446 | 30 | 334 | 0.0 | 3.2 | 0.00 | 0.15 | 0.00 | 79 | 1013.1 |
| 20260905161946 | 30 | 69 | 0.0 | 3.2 | 0.00 | 0.15 | 0.00 | 78 | 1013.1 |
| 20260905161447 | 30 | 282 | 0.0 | 1.6 | 0.00 | 0.15 | 0.00 | 80 | 1013.2 |
| 20260905160946 | 30 | 164 | 0.0 | 1.6 | 0.00 | 0.15 | 0.00 | 81 | 1013.2 |
| 20260905160445 | 30 | 133 | 0.0 | 1.6 | 0.00 | 0.15 | 0.00 | 82 | 1013.1 |
| 20260905160235 | 29 | 94 | 0.0 | 1.6 | 0.00 | 0.15 | 0.00 | 80 | 1013.2 |
| 20260905155446 | 29 | 258 | 0.0 | 1.6 | 0.00 | 0.15 | 0.00 | 83 | 1013.2 |
| 20260905154947 | 29 | 117 | 0.0 | 4.8 | 0.00 | 0.15 | 0.00 | 84 | 1013.2 |
| 20260905154446 | 29 | 213 | 1.6 | 4.8 | 0.00 | 0.15 | 0.00 | 83 | 1013.2 |
| 20260905153945 | 29 | 353 | 0.0 | 8.0 | 0.00 | 0.15 | 0.00 | 86 | 1013.2 |
| 20260905153739 | 28 | 157 | 3.2 | 8.0 | 0.00 | 0.15 | 0.00 | 85 | 1013.2 |
| 20260905152945 | 28 | 259 | 0.0 | 3.2 | 0.00 | 0.15 | 0.00 | 87 | 1013.2 |
| 20260905152446 | 28 | 234 | 0.0 | 3.2 | 0.00 | 0.15 | 0.00 | 90 | 1013.3 |
| 20260905151945 | 27 | 78 | 0.0 | 1.6 | 0.00 | 0.15 | 0.00 | 88 | 1013.2 |
| 20260905151446 | 28 | 78 | 0.0 | 1.6 | 0.00 | 0.15 | 0.00 | 88 | 1013.1 |
| 20260905150946 | 28 | 107 | 0.0 | 1.6 | 0.00 | 0.15 | 0.00 | 89 | 1013.2 |
| 20260905150443 | 28 | 103 | 0.0 | 1.6 | 0.00 | 0.15 | 0.00 | 89 | 1013.2 |
| 20260905145945 | 28 | 345 | 0.0 | 1.6 | 0.00 | 0.15 | 0.00 | 90 | 1013.2 |
| 20260905145443 | 27 | 241 | 0.0 | 1.6 | 0.00 | 0.15 | 0.00 | 89 | 1013.2 |
| 20260905144945 | 28 | 231 | 0.0 | 1.6 | 0.00 | 0.15 | 0.00 | 88 | 1013.1 |
| 20260905144443 | 28 | 110 | 0.0 | 1.6 | 0.00 | 0.15 | 0.00 | 88 | 1013.1 |
| 20260905143944 | 28 | 248 | 0.0 | 1.6 | 0.00 | 0.15 | 0.00 | 88 | 1013.2 |
| 20260905143445 | 28 | 282 | 0.0 | 1.6 | 0.00 | 0.15 | 0.00 | 89 | 1013.2 |
| 20260905142943 | 28 | 283 | 0.0 | 1.6 | 0.00 | 0.15 | 0.00 | 87 | 1013.2 |
| 20260905142443 | 28 | 289 | 0.0 | 1.6 | 0.00 | 0.15 | 0.00 | 88 | 1013.1 |
| 20260905141943 | 28 | 92 | 0.0 | 1.6 | 0.00 | 0.15 | 0.00 | 89 | 1013.1 |
| 20260905141443 | 28 | 121 | 0.0 | 1.6 | 0.00 | 0.15 | 0.00 | 91 | 1013.1 |
| 20260905140943 | 27 | 123 | 0.0 | 1.6 | 0.00 | 0.15 | 0.00 | 93 | 1013.1 |
| 20260905140444 | 27 | 272 | 0.0 | 4.8 | 0.00 | 0.15 | 0.00 | 94 | 1013.1 |
| 20260905140236 | 26 | 90 | 0.0 | 4.8 | 0.00 | 0.15 | 0.00 | 95 | 1013.1 |
| 20260905135442 | 26 | 72 | 1.6 | 4.8 | 0.00 | 0.15 | 0.00 | 96 | 1013.1 |
| 20260905135237 | 26 | 109 | 0.0 | 1.6 | 0.00 | 0.15 | 0.00 | 97 | 1013.1 |
| 20260905134732 | 26 | 117 | 0.0 | 1.6 | 0.00 | 0.15 | 0.00 | 98 | 1013.1 |
| 20260905134236 | 25 | 116 | 0.0 | 1.6 | 0.00 | 0.15 | 0.00 | 98 | 1013.2 |
| 20260905133443 | 25 | 121 | 0.0 | 1.6 | 0.00 | 0.15 | 0.00 | 98 | 1013.0 |
| 20260905132943 | 25 | 121 | 0.0 | 1.6 | 0.00 | 0.15 | 0.00 | 98 | 1013.1 |
| 20260905132444 | 25 | 121 | 0.0 | 1.6 | 0.00 | 0.18 | 0.00 | 98 | 1013.0 |
| 20260905132224 | 24 | 121 | 0.0 | 1.6 | 0.00 | 0.18 | 0.00 | 98 | 1013.0 |
| 20260905131441 | 24 | 123 | 0.0 | 0.0 | 0.00 | 0.18 | 0.00 | 98 | 1012.9 |
| 20260905130943 | 23 | 92 | 0.0 | 1.6 | 0.00 | 0.18 | 0.00 | 98 | 1012.9 |
| 20260905130441 | 23 | 92 | 0.0 | 1.6 | 0.00 | 0.18 | 0.00 | 98 | 1012.8 |
| 20260905125943 | 23 | 80 | 0.0 | 1.6 | 0.00 | 0.18 | 0.00 | 98 | 1012.9 |
| 20260905125531 | 23 | 58 | 0.0 | 0.0 | 0.00 | 0.18 | 0.00 | 98 | 1012.7 |
| 20260905125511 | 23 | 58 | 0.0 | 0.0 | 0.00 | 0.18 | 0.00 | 98 | 1012.7 |
| 20260905124442 | 23 | 58 | 0.0 | 0.0 | 0.00 | 0.18 | 0.00 | 98 | 1012.8 |
| 20260905124229 | 23 | 58 | 0.0 | 0.0 | 0.00 | 0.18 | 0.00 | 98 | 1012.7 |
| 20260905123443 | 22 | 58 | 0.0 | 0.0 | 0.00 | 0.18 | 0.00 | 98 | 1012.6 |
| 20260905122940 | 22 | 58 | 0.0 | 0.0 | 0.00 | 0.18 | 0.00 | 98 | 1012.5 |
| 20260905122442 | 22 | 58 | 0.0 | 0.0 | 0.00 | 0.18 | 0.00 | 98 | 1012.5 |
| 20260905121941 | 22 | 58 | 0.0 | 0.0 | 0.00 | 0.18 | 0.00 | 98 | 1012.4 |
| 20260905121440 | 22 | 58 | 0.0 | 0.0 | 0.00 | 0.18 | 0.00 | 98 | 1012.4 |
| 20260905120940 | 22 | 58 | 0.0 | 0.0 | 0.00 | 0.18 | 0.00 | 98 | 1012.4 |
| 20260905120441 | 22 | 58 | 0.0 | 0.0 | 0.00 | 0.18 | 0.00 | 98 | 1012.3 |
| 20260905115941 | 22 | 58 | 0.0 | 0.0 | 0.00 | 0.18 | 0.00 | 98 | 1012.3 |
| 20260905115441 | 22 | 58 | 0.0 | 0.0 | 0.00 | 0.18 | 0.00 | 98 | 1012.2 |
| 20260905114941 | 22 | 58 | 0.0 | 0.0 | 0.00 | 0.18 | 0.00 | 98 | 1012.4 |
| 20260905114440 | 22 | 58 | 0.0 | 0.0 | 0.00 | 0.18 | 0.00 | 98 | 1012.3 |
| 20260905113939 | 22 | 58 | 0.0 | 0.0 | 0.00 | 0.18 | 0.00 | 98 | 1012.2 |
| 20260905113439 | 22 | 58 | 0.0 | 0.0 | 0.00 | 0.18 | 0.00 | 98 | 1012.1 |
| 20260905112941 | 22 | 58 | 0.0 | 0.0 | 0.00 | 0.18 | 0.00 | 98 | 1012.1 |
| 20260905112439 | 22 | 58 | 0.0 | 0.0 | 0.00 | 0.18 | 0.00 | 98 | 1012.0 |
| 20260905111940 | 22 | 58 | 0.0 | 0.0 | 0.00 | 0.18 | 0.00 | 98 | 1011.9 |
| 20260905111440 | 22 | 58 | 0.0 | 0.0 | 0.00 | 0.18 | 0.00 | 98 | 1012.0 |
| 20260905111232 | 22 | 58 | 0.0 | 0.0 | 0.00 | 0.18 | 0.00 | 98 | 1012.0 |
| 20260905110438 | 22 | 58 | 0.0 | 0.0 | 0.00 | 0.18 | 0.00 | 98 | 1012.1 |
| 20260905110221 | 22 | 58 | 0.0 | 0.0 | 0.00 | 0.18 | 0.00 | 98 | 1012.1 |
| 20260905105527 | 22 | 58 | 0.0 | 0.0 | 0.00 | 0.18 | 0.00 | 98 | 1012.0 |
| 20260905105508 | 22 | 58 | 0.0 | 0.0 | 0.00 | 0.18 | 0.00 | 98 | 1012.1 |
| 20260905104440 | 22 | 58 | 0.0 | 0.0 | 0.00 | 0.18 | 0.00 | 98 | 1012.1 |
| 20260905103938 | 22 | 58 | 0.0 | 0.0 | 0.00 | 0.18 | 0.00 | 98 | 1012.2 |
| 20260905103439 | 22 | 58 | 0.0 | 0.0 | 0.00 | 0.18 | 0.00 | 98 | 1012.2 |
| 20260905102940 | 22 | 58 | 0.0 | 0.0 | 0.00 | 0.18 | 0.00 | 98 | 1012.2 |
| 20260905102438 | 22 | 58 | 0.0 | 0.0 | 0.00 | 0.18 | 0.00 | 98 | 1012.2 |
| 20260905101939 | 22 | 58 | 0.0 | 0.0 | 0.00 | 0.18 | 0.00 | 98 | 1012.1 |
| 20260905101729 | 22 | 58 | 0.0 | 0.0 | 0.00 | 0.18 | 0.00 | 98 | 1012.2 |
| 20260905101234 | 22 | 58 | 0.0 | 0.0 | 0.00 | 0.18 | 0.00 | 98 | 1012.2 |
| 20260905100437 | 22 | 58 | 0.0 | 0.0 | 0.00 | 0.18 | 0.00 | 98 | 1012.1 |
| 20260905095937 | 22 | 58 | 0.0 | 0.0 | 0.00 | 0.18 | 0.00 | 98 | 1012.2 |
| 20260905095438 | 22 | 58 | 0.0 | 0.0 | 0.00 | 0.18 | 0.00 | 98 | 1012.3 |
| 20260905094938 | 22 | 58 | 0.0 | 0.0 | 0.00 | 0.18 | 0.00 | 98 | 1012.2 |
| 20260905094439 | 22 | 58 | 0.0 | 0.0 | 0.00 | 0.18 | 0.00 | 98 | 1012.1 |
| 20260905093938 | 22 | 58 | 0.0 | 0.0 | 0.00 | 0.18 | 0.00 | 98 | 1012.0 |
| 20260905093438 | 22 | 58 | 0.0 | 0.0 | 0.00 | 0.18 | 0.00 | 98 | 1011.9 |
| 20260905092936 | 22 | 58 | 0.0 | 0.0 | 0.00 | 0.18 | 0.00 | 98 | 1011.9 |
| 20260905092439 | 22 | 58 | 0.0 | 0.0 | 0.00 | 0.18 | 0.00 | 98 | 1011.9 |
| 20260905091936 | 22 | 58 | 0.0 | 0.0 | 0.00 | 0.18 | 0.00 | 98 | 1011.8 |
| 20260905091436 | 22 | 58 | 0.0 | 0.0 | 0.00 | 0.18 | 0.00 | 98 | 1011.9 |
| 20260905091030 | 22 | 58 | 0.0 | 0.0 | 0.00 | 0.18 | 0.00 | 98 | 1011.8 |
| 20260905091011 | 22 | 58 | 0.0 | 0.0 | 0.00 | 0.18 | 0.00 | 98 | 1011.8 |
| 20260905085938 | 22 | 58 | 0.0 | 0.0 | 0.00 | 0.18 | 0.00 | 98 | 1011.9 |
| 20260905085437 | 22 | 58 | 0.0 | 0.0 | 0.00 | 0.18 | 0.00 | 98 | 1012.0 |
| 20260905084937 | 22 | 58 | 0.0 | 0.0 | 0.00 | 0.18 | 0.00 | 98 | 1012.0 |
| 20260905084436 | 22 | 58 | 0.0 | 0.0 | 0.00 | 0.18 | 0.00 | 98 | 1011.9 |
| 20260905084230 | 22 | 58 | 0.0 | 0.0 | 0.00 | 0.18 | 0.00 | 98 | 1011.9 |
| 20260905083435 | 22 | 58 | 0.0 | 0.0 | 0.00 | 0.18 | 0.00 | 98 | 1011.8 |
| 20260905083232 | 22 | 58 | 0.0 | 0.0 | 0.00 | 0.18 | 0.00 | 98 | 1011.9 |
| 20260905082437 | 22 | 58 | 0.0 | 0.0 | 0.00 | 0.18 | 0.00 | 98 | 1011.8 |
| 20260905081935 | 22 | 58 | 0.0 | 0.0 | 0.00 | 0.18 | 0.00 | 98 | 1011.8 |
| 20260905081436 | 22 | 58 | 0.0 | 0.0 | 0.00 | 0.18 | 0.00 | 98 | 1011.8 |
| 20260905080934 | 22 | 58 | 0.0 | 0.0 | 0.00 | 0.18 | 0.00 | 98 | 1011.8 |
| 20260905080436 | 22 | 58 | 0.0 | 0.0 | 0.00 | 0.18 | 0.00 | 98 | 1011.8 |
| 20260905075935 | 22 | 58 | 0.0 | 0.0 | 0.00 | 0.18 | 0.00 | 98 | 1011.7 |
| 20260905075435 | 22 | 58 | 0.0 | 0.0 | 0.00 | 0.18 | 0.00 | 98 | 1011.7 |
| 20260905074934 | 22 | 58 | 0.0 | 0.0 | 0.00 | 0.18 | 0.00 | 98 | 1011.7 |
| 20260905074435 | 22 | 58 | 0.0 | 0.0 | 0.00 | 0.18 | 0.00 | 98 | 1011.6 |
| 20260905073934 | 22 | 58 | 0.0 | 0.0 | 0.00 | 0.18 | 0.00 | 98 | 1011.7 |
| 20260905073722 | 22 | 58 | 0.0 | 0.0 | 0.00 | 0.18 | 0.00 | 98 | 1011.7 |
| 20260905073222 | 22 | 58 | 0.0 | 0.0 | 0.00 | 0.18 | 0.00 | 97 | 1011.6 |
| 20260905072605 | 23 | 58 | 0.0 | 0.0 | 0.00 | 0.18 | 0.00 | 97 | 1011.6 |
| 20260905072532 | 22 | 58 | 0.0 | 0.0 | 0.00 | 0.18 | 0.00 | 97 | 1011.6 |
| 20260905072305 | 22 | 58 | 0.0 | 0.0 | 0.00 | 0.18 | 0.00 | 97 | 1011.5 |
| 20260905070935 | 23 | 58 | 0.0 | 0.0 | 0.00 | 0.18 | 0.00 | 98 | 1011.6 |
| 20260905070433 | 23 | 58 | 0.0 | 0.0 | 0.00 | 0.20 | 0.00 | 98 | 1011.7 |
| 20260905065933 | 23 | 58 | 0.0 | 0.0 | 0.00 | 0.20 | 0.00 | 98 | 1011.7 |
| 20260905065434 | 23 | 58 | 0.0 | 0.0 | 0.00 | 0.20 | 0.00 | 98 | 1011.6 |
| 20260905064933 | 22 | 58 | 0.0 | 0.0 | 0.00 | 0.20 | 0.00 | 97 | 1011.6 |
| 20260905064433 | 22 | 58 | 0.0 | 0.0 | 0.00 | 0.23 | 0.00 | 97 | 1011.6 |
| 20260905063933 | 22 | 58 | 0.0 | 0.0 | 0.00 | 0.23 | 0.00 | 97 | 1011.5 |
| 20260905063721 | 22 | 58 | 0.0 | 0.0 | 0.00 | 0.23 | 0.00 | 97 | 1011.5 |
| 20260905062933 | 22 | 58 | 0.0 | 0.0 | 0.00 | 0.23 | 0.00 | 97 | 1011.5 |
| 20260905062432 | 23 | 58 | 0.0 | 0.0 | 0.00 | 0.23 | 0.00 | 97 | 1011.6 |
| 20260905061932 | 23 | 58 | 0.0 | 0.0 | 0.00 | 0.23 | 0.00 | 97 | 1011.5 |
| 20260905061432 | 23 | 58 | 0.0 | 0.0 | 0.00 | 0.23 | 0.00 | 97 | 1011.5 |
| 20260905060932 | 23 | 58 | 0.0 | 0.0 | 0.00 | 0.23 | 0.00 | 97 | 1011.5 |
| 20260905060432 | 23 | 58 | 0.0 | 0.0 | 0.00 | 0.23 | 0.00 | 97 | 1011.5 |
| 20260905055932 | 23 | 58 | 0.0 | 0.0 | 0.00 | 0.23 | 0.00 | 97 | 1011.5 |
| 20260905055432 | 23 | 58 | 0.0 | 0.0 | 0.00 | 0.23 | 0.00 | 97 | 1011.5 |
| 20260905054933 | 23 | 58 | 0.0 | 0.0 | 0.00 | 0.23 | 0.00 | 97 | 1011.6 |
| 20260905054431 | 23 | 58 | 0.0 | 0.0 | 0.00 | 0.23 | 0.00 | 97 | 1011.6 |
| 20260905053931 | 23 | 58 | 0.0 | 0.0 | 0.00 | 0.23 | 0.00 | 97 | 1011.7 |
| 20260905053434 | 23 | 58 | 0.0 | 0.0 | 0.00 | 0.23 | 0.00 | 97 | 1011.8 |
| 20260905052931 | 23 | 58 | 0.0 | 0.0 | 0.00 | 0.23 | 0.00 | 97 | 1011.8 |
| 20260905052433 | 23 | 58 | 0.0 | 0.0 | 0.00 | 0.23 | 0.00 | 97 | 1011.7 |
| 20260905051931 | 23 | 58 | 0.0 | 0.0 | 0.00 | 0.23 | 0.00 | 97 | 1011.7 |
| 20260905051432 | 23 | 58 | 0.0 | 0.0 | 0.00 | 0.23 | 0.00 | 97 | 1011.8 |
| 20260905050931 | 23 | 58 | 0.0 | 0.0 | 0.00 | 0.23 | 0.00 | 97 | 1011.7 |
| 20260905050703 | -17 | 0.0 | 0.0 | 0.00 | 0.00 | 0.00 | 1011.8 | ||
| 20260905045525 | 23 | 58 | 0.0 | 0.0 | 0.00 | 0.23 | 0.23 | 97 | 1011.9 |
| 20260905045019 | 23 | 58 | 0.0 | 0.0 | 0.00 | 0.23 | 0.23 | 97 | 1011.9 |
| 20260905044519 | 23 | 58 | 0.0 | 0.0 | 0.00 | 0.23 | 0.23 | 97 | 1012.1 |
| 20260905044012 | 23 | 58 | 0.0 | 0.0 | 0.00 | 0.23 | 0.23 | 97 | 1012.1 |
| 20260905043510 | 23 | 58 | 0.0 | 0.0 | 0.00 | 0.23 | 0.23 | 97 | 1012.2 |
| 20260905043005 | 23 | 58 | 0.0 | 0.0 | 0.00 | 0.23 | 0.23 | 97 | 1012.3 |
| 20260905042503 | 23 | 58 | 0.0 | 0.0 | 0.00 | 0.23 | 0.23 | 97 | 1012.4 |
| 20260905042248 | 23 | 58 | 0.0 | 0.0 | 0.00 | 0.23 | 0.23 | 97 | 1012.5 |
| 20260905041504 | 23 | 58 | 0.0 | 0.0 | 0.00 | 0.23 | 0.23 | 97 | 1012.5 |
| 20260905041242 | 23 | 58 | 0.0 | 0.0 | 0.00 | 0.23 | 0.23 | 97 | 1012.6 |
| 20260905040502 | 23 | 58 | 0.0 | 0.0 | 0.00 | 0.23 | 0.23 | 97 | 1012.4 |